Satellite-Ground Cal/Val Site Overpasses Predictions

Prediction of Satellite NPP Overpassing Cal/Val Site: Antarctic Dome C

Ground Cal/Val Site Location: Latitude: -75.10, Longitude: 123.35; Satellite-Ground Site NADIR distance within 100 km.

Table of predicted overpasses for the next 14.0 days since TLE Epoch: 2/26/2022
Interval Starting Time Ending Time Minimum Distance Time Minimum Distance (km)
1 02/28/2022 14:55:07 02/28/2022 14:55:35 02/28/2022 14:55:21 20.16
2 03/01/2022 14:36:25 03/01/2022 14:36:40 03/01/2022 14:36:33 86.79
3 03/02/2022 07:37:58 03/02/2022 07:38:25 03/02/2022 07:38:12 36.12
4 03/03/2022 07:19:12 03/03/2022 07:19:31 03/03/2022 07:19:22 74.01
5 03/05/2022 15:01:27 03/05/2022 15:01:51 03/05/2022 15:01:39 57.42
6 03/06/2022 14:42:37 03/06/2022 14:43:02 03/06/2022 14:42:50 51.68
7 03/07/2022 07:44:18 03/07/2022 07:44:38 03/07/2022 07:44:28 71.44
8 03/08/2022 07:25:26 03/08/2022 07:25:53 03/08/2022 07:25:39 36.46
9 03/10/2022 15:07:52 03/10/2022 15:08:01 03/10/2022 15:07:56 95.35
